Tracking 18987 objects as of 24-Feb-2018
HD Live streaming from Space Station
objects crossing your sky now

GLOBALSTAR M059

Track GLOBALSTAR M059 now!
10-day predictions
GLOBALSTAR M059 is classified as:


NORAD ID: 25944
Int'l Code: 1999-058B
Perigee: 1,687.1 km
Apogee: 1,689.6 km
Inclination: 52.0 °
Period: 120.0 minutes
Semi major axis: 8059 km
RCS: 2.6566 m2 (large)
Launch date: October 18, 1999
Source: Globalstar (GLOB)
Launch site: TYURATAM MISSILE AND SPACE COMPLEX (TTMTR)
aabbcc
Your satellite tracking list
Your tracking list is empty




NASA's NSSDC Master Catalog

Two Line Element Set (TLE):
1 25944U 99058B   18055.25870799 -.00000072 +00000-0 +17460-3 0  9992
2 25944 051.9991 229.7421 0001526 091.2118 310.2629 11.99922611253524
Source of the keplerian elements: AFSPC